Meteo pe oră la Dadanovka

Astăzi, 14 Aprilie, Miercuri

Timp Temperatura Precipitaţii Vânt Presiune Umiditate
00:00 +11°C° 0 mm 4 m/s 745 mmHg 64%
01:00 +11°C° 0 mm 4 m/s 745 mmHg 70%
02:00 +10°C° 0 mm 3 m/s 745 mmHg 76%
03:00 +10°C° 0 mm 3 m/s 745 mmHg 81%
04:00 +10°C° 0 mm 3 m/s 745 mmHg 83%
05:00 +9°C° 0 mm 3 m/s 744 mmHg 86%
06:00 +9°C° 0 mm 2 m/s 744 mmHg 88%
07:00 +10°C° 0 mm 3 m/s 744 mmHg 82%
08:00 +11°C° 0 mm 3 m/s 744 mmHg 76%
09:00 +12°C° 0 mm 3 m/s 744 mmHg 70%
10:00 +14°C° 0 mm 4 m/s 744 mmHg 59%
11:00 +15°C° 0 mm 4 m/s 743 mmHg 48%
12:00 +17°C° 0 mm 5 m/s 743 mmHg 38%
13:00 +17°C° 0 mm 5 m/s 743 mmHg 34%
14:00 +19°C° 0 mm 5 m/s 742 mmHg 31%
15:00 +20°C° 0 mm 5 m/s 742 mmHg 28%
16:00 +19°C° 0 mm 5 m/s 742 mmHg 30%
17:00 +19°C° 0 mm 4 m/s 742 mmHg 32%
18:00 +18°C° 0 mm 3 m/s 742 mmHg 34%
19:00 +17°C° 0 mm 3 m/s 742 mmHg 37%
20:00 +16°C° 0 mm 2 m/s 742 mmHg 40%
21:00 +14°C° 0 mm 1 m/s 742 mmHg 43%
22:00 +14°C° 0 mm 2 m/s 741 mmHg 47%
23:00 +13°C° 0 mm 2 m/s 741 mmHg 51%

Mâine, 15 Aprilie, Joi

Timp Temperatura Precipitaţii Vânt Presiune Umiditate
00:00 +12°C° 0 mm 2 m/s 741 mmHg 54%
01:00 +12°C° 0 mm 2 m/s 741 mmHg 56%
02:00 +12°C° 0 mm 2 m/s 741 mmHg 59%
03:00 +10°C° 0 mm 2 m/s 741 mmHg 61%
04:00 +10°C° 0 mm 2 m/s 740 mmHg 63%
05:00 +10°C° 0 mm 2 m/s 740 mmHg 65%
06:00 +10°C° 0 mm 1 m/s 740 mmHg 67%
07:00 +10°C° 0 mm 2 m/s 740 mmHg 63%
08:00 +13°C° 0 mm 2 m/s 740 mmHg 59%
09:00 +14°C° 0 mm 2 m/s 740 mmHg 56%
10:00 +15°C° 0 mm 2 m/s 740 mmHg 52%
11:00 +16°C° 0 mm 3 m/s 740 mmHg 48%
12:00 +17°C° 0 mm 3 m/s 740 mmHg 44%
13:00 +17°C° 0 mm 3 m/s 740 mmHg 43%
14:00 +18°C° 0 mm 3 m/s 740 mmHg 42%
15:00 +18°C° 0 mm 3 m/s 740 mmHg 40%
16:00 +18°C° 0 mm 2 m/s 740 mmHg 43%
17:00 +18°C° 0 mm 2 m/s 739 mmHg 45%
18:00 +17°C° 0 mm 2 m/s 739 mmHg 48%
19:00 +16°C° 0 mm 3 m/s 739 mmHg 53%
20:00 +14°C° 0 mm 3 m/s 740 mmHg 59%
21:00 +13°C° 0 mm 3 m/s 740 mmHg 64%
22:00 +12°C° 0 mm 3 m/s 740 mmHg 67%
23:00 +12°C° 0 mm 3 m/s 740 mmHg 69%

Poimâine, 16 Aprilie, Vineri

Timp Temperatura Precipitaţii Vânt Presiune Umiditate
00:00 +13°C° 0 mm 2 m/s 740 mmHg 72%
01:00 +12°C° 0 mm 2 m/s 740 mmHg 74%
02:00 +12°C° 0 mm 2 m/s 740 mmHg 76%
03:00 +10°C° 0 mm 3 m/s 740 mmHg 78%
04:00 +10°C° 0.1 mm 2 m/s 740 mmHg 79%
05:00 +10°C° 0.1 mm 2 m/s 740 mmHg 80%
06:00 +10°C° 0.1 mm 2 m/s 741 mmHg 81%
07:00 +11°C° 0 mm 3 m/s 741 mmHg 78%
08:00 +11°C° 0 mm 3 m/s 741 mmHg 75%
09:00 +12°C° 0 mm 3 m/s 741 mmHg 71%
10:00 +13°C° 0 mm 4 m/s 742 mmHg 67%
11:00 +14°C° 0 mm 4 m/s 742 mmHg 63%
12:00 +15°C° 0 mm 4 m/s 742 mmHg 59%
13:00 +15°C° 0.3 mm 4 m/s 742 mmHg 58%
14:00 +15°C° 0.3 mm 4 m/s 742 mmHg 57%
15:00 +16°C° 0.3 mm 5 m/s 742 mmHg 56%
16:00 +15°C° 0.7 mm 4 m/s 742 mmHg 58%
17:00 +16°C° 0.7 mm 3 m/s 742 mmHg 59%
18:00 +16°C° 0.7 mm 3 m/s 742 mmHg 60%
19:00 +15°C° 0.8 mm 2 m/s 742 mmHg 67%
20:00 +13°C° 0.8 mm 2 m/s 742 mmHg 73%
21:00 +12°C° 0.8 mm 2 m/s 743 mmHg 80%
22:00 +11°C° 0.4 mm 3 m/s 743 mmHg 83%
23:00 +10°C° 0.4 mm 3 m/s 743 mmHg 86%

17 Aprilie, Sâmbătă

Timp Temperatura Precipitaţii Vânt Presiune Umiditate
00:00 +10°C° 0.4 mm 4 m/s 743 mmHg 90%
01:00 +10°C° 0.1 mm 4 m/s 743 mmHg 91%
02:00 +8°C° 0.1 mm 5 m/s 743 mmHg 92%
03:00 +8°C° 0.1 mm 5 m/s 743 mmHg 93%
04:00 +7°C° 0.1 mm 5 m/s 743 mmHg 93%
05:00 +7°C° 0.1 mm 5 m/s 744 mmHg 93%
06:00 +6°C° 0.1 mm 5 m/s 744 mmHg 93%
07:00 +7°C° 0 mm 6 m/s 744 mmHg 90%
08:00 +8°C° 0 mm 6 m/s 744 mmHg 87%
09:00 +8°C° 0 mm 7 m/s 744 mmHg 83%
10:00 +10°C° 0 mm 7 m/s 744 mmHg 77%
11:00 +11°C° 0 mm 8 m/s 744 mmHg 70%
12:00 +13°C° 0 mm 8 m/s 744 mmHg 64%
13:00 +13°C° 0 mm 8 m/s 744 mmHg 62%
14:00 +15°C° 0 mm 9 m/s 744 mmHg 60%
15:00 +15°C° 0 mm 9 m/s 744 mmHg 58%
16:00 +15°C° 0.1 mm 9 m/s 744 mmHg 59%
17:00 +13°C° 0.1 mm 9 m/s 744 mmHg 61%
18:00 +13°C° 0.1 mm 8 m/s 744 mmHg 63%
19:00 +12°C° 0.2 mm 7 m/s 744 mmHg 67%
20:00 +10°C° 0.2 mm 6 m/s 745 mmHg 71%
21:00 +9°C° 0.2 mm 5 m/s 745 mmHg 75%
22:00 +9°C° 0.2 mm 5 m/s 745 mmHg 74%
23:00 +9°C° 0.2 mm 6 m/s 745 mmHg 73%

18 Aprilie, Duminică

Timp Temperatura Precipitaţii Vânt Presiune Umiditate
00:00 +8°C° 0.2 mm 6 m/s 746 mmHg 72%
01:00 +8°C° 0.1 mm 5 m/s 746 mmHg 72%
02:00 +7°C° 0.1 mm 5 m/s 746 mmHg 72%
03:00 +7°C° 0.1 mm 5 m/s 746 mmHg 72%
04:00 +6°C° 0 mm 5 m/s 746 mmHg 73%
05:00 +6°C° 0 mm 5 m/s 746 mmHg 73%
06:00 +6°C° 0 mm 5 m/s 747 mmHg 73%
07:00 +6°C° 0 mm 5 m/s 747 mmHg 72%
08:00 +6°C° 0 mm 5 m/s 747 mmHg 71%
09:00 +6°C° 0 mm 5 m/s 747 mmHg 69%
10:00 +7°C° 0 mm 5 m/s 748 mmHg 63%
11:00 +9°C° 0 mm 6 m/s 748 mmHg 57%
12:00 +10°C° 0 mm 6 m/s 748 mmHg 51%
13:00 +11°C° 0 mm 6 m/s 748 mmHg 48%
14:00 +11°C° 0 mm 6 m/s 748 mmHg 46%
15:00 +13°C° 0 mm 6 m/s 748 mmHg 43%
16:00 +13°C° 0 mm 5 m/s 748 mmHg 44%
17:00 +13°C° 0 mm 5 m/s 748 mmHg 44%
18:00 +12°C° 0 mm 5 m/s 748 mmHg 45%
19:00 +11°C° 0 mm 4 m/s 748 mmHg 50%
20:00 +10°C° 0 mm 4 m/s 749 mmHg 55%
21:00 +8°C° 0 mm 4 m/s 749 mmHg 60%
22:00 +7°C° 0 mm 4 m/s 749 mmHg 63%
23:00 +6°C° 0 mm 4 m/s 749 mmHg 66%

19 Aprilie, Luni

Timp Temperatura Precipitaţii Vânt Presiune Umiditate
00:00 +6°C° 0 mm 4 m/s 749 mmHg 70%
01:00 +5°C° 0 mm 4 m/s 750 mmHg 73%
02:00 +5°C° 0 mm 3 m/s 750 mmHg 76%
03:00 +4°C° 0 mm 3 m/s 750 mmHg 79%
04:00 +4°C° 0 mm 3 m/s 750 mmHg 80%
05:00 +4°C° 0 mm 3 m/s 750 mmHg 81%
06:00 +4°C° 0 mm 3 m/s 750 mmHg 82%
07:00 +5°C° 0 mm 4 m/s 751 mmHg 75%
08:00 +6°C° 0 mm 4 m/s 751 mmHg 68%
09:00 +8°C° 0 mm 5 m/s 751 mmHg 61%
10:00 +9°C° 0 mm 5 m/s 751 mmHg 57%
11:00 +10°C° 0 mm 5 m/s 752 mmHg 52%
12:00 +12°C° 0 mm 5 m/s 752 mmHg 48%
13:00 +13°C° 0 mm 5 m/s 752 mmHg 46%
14:00 +13°C° 0 mm 5 m/s 752 mmHg 44%
15:00 +14°C° 0 mm 5 m/s 752 mmHg 42%
16:00 +13°C° 0 mm 5 m/s 751 mmHg 45%
17:00 +13°C° 0 mm 5 m/s 751 mmHg 48%
18:00 +12°C° 0 mm 5 m/s 751 mmHg 51%
19:00 +11°C° 0 mm 4 m/s 752 mmHg 53%
20:00 +10°C° 0 mm 4 m/s 752 mmHg 56%
21:00 +9°C° 0 mm 3 m/s 752 mmHg 58%
22:00 +8°C° 0 mm 4 m/s 752 mmHg 58%
23:00 +8°C° 0 mm 5 m/s 752 mmHg 57%
Arată mai mult

Formular de consimțământ

Meteoprog și furnizorii noștri de servicii pot stoca și accesa date personale, precum cookies, identificatori de dispozitiv sau alte tehnologii similare pe dispozitivul dumneavoastră și procesa astfel de date pentru a personaliza conținutul și reclamele, dar și pentru a oferi caracteristici de social media și pentru a analiza traficul.

  • Stocarea și/sau accesarea informațiilor pe dispozitivul dumneavoastră

    Cookies, identificatori de dispozitiv sau alte informații pot fi stocate sau accesate pe dispozitiv în scopurile indicate mai sus.

  • Reclame și conținut personalizat, evaluarea reclamelor și a conținutului, informații despre audiențe și dezvoltarea produselor

    Reclamele și conținutul pot fi personalizate pe baza unui profil. Pot fi adăugate date suplimentare pentru a personaliza mai bine reclamele și conținutul. Performanța reclamelor și conținutului poate fi măsurată. Pot fi obținute informații despre utilizatorii care au văzut reclamele și conținutul. Aceste date pot fi utilizate pentru a dezvolta sau îmbunătăți experiența utilizatorilor, sistemele și software-ul.

Dând clic pe ‘Sunt de acord’, permiteți utilizarea cookie-urilor menționate, a identificatorilor de dispozitiv, balizelor web sau altor tehnologii similare. Setările pot fi modificate din browser-ul dispozitivului dumneavoastră.

În anumite scopuri, interesele legitime pot prima asupra consimțământului. Puteți citi mai multe informații în acest sens în Politica privind Confidențialitatea Datelor și Cookie.